| time (UTC) | temp F | wind direction | speed MPH | gust MPH | rain 1hr in | rain 24hr in | rain mn in | humidity % | barometer mb |
| 20260507020036 | 56 | 345 | 4.0 | 9.0 | 0.00 | 0.48 | 0.48 | 82 | 1010.3 |
| 20260507014548 | 57 | 5 | 3.0 | 9.0 | 0.00 | 0.48 | 0.48 | 83 | 1010.4 |
| 20260507013044 | 58 | 306 | 4.0 | 9.0 | 0.00 | 0.48 | 0.48 | 83 | 1010.3 |
| 20260507011538 | 58 | 312 | 2.0 | 8.0 | 0.00 | 0.48 | 0.48 | 83 | 1010.2 |
| 20260507010034 | 59 | 328 | 4.0 | 12.0 | 0.00 | 0.48 | 0.48 | 83 | 1009.8 |
| 20260507004531 | 60 | 349 | 5.0 | 9.0 | 0.00 | 0.48 | 0.48 | 82 | 1009.4 |
| 20260507003034 | 61 | 293 | 2.0 | 4.0 | 0.00 | 0.48 | 0.48 | 83 | 1009.1 |
| 20260507001539 | 61 | 281 | 1.0 | 7.0 | 0.00 | 0.48 | 0.48 | 83 | 1008.6 |
| 20260507000035 | 61 | 290 | 2.0 | 5.0 | 0.00 | 0.48 | 0.48 | 83 | 1008.3 |
| 20260506234533 | 61 | 272 | 1.0 | 3.0 | 0.00 | 0.48 | 0.48 | 83 | 1007.9 |
| 20260506233032 | 61 | 289 | 2.0 | 4.0 | 0.02 | 0.48 | 0.48 | 85 | 1008.0 |
| 20260506231540 | 62 | 292 | 2.0 | 3.0 | 0.07 | 0.48 | 0.48 | 90 | 1008.0 |
| 20260506230032 | 63 | 277 | 0.0 | 1.0 | 0.08 | 0.48 | 0.48 | 92 | 1007.9 |
| 20260506224535 | 63 | 274 | 1.0 | 4.0 | 0.08 | 0.48 | 0.48 | 91 | 1007.6 |
| 20260506223035 | 63 | 281 | 1.0 | 3.0 | 0.06 | 0.46 | 0.46 | 90 | 1007.6 |
| 20260506221533 | 64 | 290 | 2.0 | 5.0 | 0.01 | 0.41 | 0.41 | 88 | 1007.4 |
| 20260506220035 | 65 | 315 | 2.0 | 5.0 | 0.00 | 0.40 | 0.40 | 86 | 1007.0 |
| 20260506214532 | 66 | 0 | 0.0 | 2.0 | 0.00 | 0.40 | 0.40 | 86 | 1006.9 |
| 20260506213037 | 66 | 251 | 0.0 | 5.0 | 0.00 | 0.40 | 0.40 | 85 | 1006.7 |
| 20260506211533 | 66 | 257 | 1.0 | 3.0 | 0.00 | 0.40 | 0.40 | 85 | 1006.8 |
| 20260506210038 | 66 | 261 | 1.0 | 4.0 | 0.00 | 0.40 | 0.40 | 85 | 1006.6 |
| 20260506204533 | 66 | 264 | 1.0 | 4.0 | 0.00 | 0.40 | 0.40 | 85 | 1006.6 |
| 20260506203041 | 65 | 0 | 1.0 | 4.0 | 0.00 | 0.40 | 0.40 | 87 | 1006.5 |
| 20260506201533 | 65 | 252 | 1.0 | 4.0 | 0.00 | 0.40 | 0.40 | 89 | 1006.6 |
| 20260506200035 | 63 | 288 | 1.0 | 4.0 | 0.00 | 0.40 | 0.40 | 90 | 1006.7 |
| 20260506194538 | 63 | 277 | 1.0 | 2.0 | 0.00 | 0.40 | 0.40 | 91 | 1006.9 |
| 20260506193033 | 62 | 277 | 1.0 | 3.0 | 0.00 | 0.40 | 0.40 | 91 | 1006.9 |
| 20260506191534 | 62 | 271 | 1.0 | 4.0 | 0.00 | 0.40 | 0.40 | 91 | 1006.9 |
| 20260506190036 | 62 | 250 | 1.0 | 4.0 | 0.00 | 0.40 | 0.40 | 92 | 1006.9 |
| 20260506184531 | 61 | 248 | 1.0 | 5.0 | 0.00 | 0.40 | 0.40 | 92 | 1007.2 |
| 20260506183035 | 61 | 271 | 1.0 | 5.0 | 0.00 | 0.40 | 0.40 | 93 | 1007.3 |
| 20260506181538 | 61 | 248 | 1.0 | 2.0 | 0.00 | 0.40 | 0.40 | 93 | 1007.3 |
| 20260506180049 | 61 | 259 | 1.0 | 3.0 | 0.00 | 0.40 | 0.40 | 93 | 1007.4 |
| 20260506174533 | 61 | 283 | 1.0 | 4.0 | 0.00 | 0.40 | 0.40 | 93 | 1007.4 |
| 20260506173041 | 60 | 0 | 1.0 | 2.0 | 0.00 | 0.40 | 0.40 | 93 | 1007.3 |
| 20260506171548 | 60 | 255 | 0.0 | 7.0 | 0.00 | 0.40 | 0.40 | 93 | 1007.4 |
| 20260506170037 | 60 | 222 | 1.0 | 2.0 | 0.01 | 0.40 | 0.40 | 93 | 1007.5 |
| 20260506164537 | 60 | 243 | 0.0 | 4.0 | 0.01 | 0.40 | 0.40 | 93 | 1007.6 |
| 20260506163047 | 60 | 258 | 0.0 | 5.0 | 0.01 | 0.40 | 0.40 | 93 | 1007.7 |
| 20260506161544 | 60 | 267 | 0.0 | 4.0 | 0.04 | 0.40 | 0.40 | 93 | 1007.7 |
| 20260506160033 | 60 | 272 | 1.0 | 4.0 | 0.08 | 0.39 | 0.39 | 92 | 1007.7 |
| 20260506154539 | 60 | 0 | 0.0 | 4.0 | 0.16 | 0.39 | 0.39 | 92 | 1007.5 |
| 20260506153033 | 60 | 268 | 1.0 | 4.0 | 0.20 | 0.38 | 0.38 | 92 | 1007.6 |
| 20260506151535 | 60 | 277 | 1.0 | 4.0 | 0.19 | 0.35 | 0.35 | 92 | 1007.8 |
| 20260506150036 | 60 | 200 | 1.0 | 5.0 | 0.20 | 0.31 | 0.31 | 91 | 1008.1 |
| 20260506144532 | 61 | 264 | 1.0 | 9.0 | 0.16 | 0.23 | 0.23 | 91 | 1008.6 |
| 20260506143033 | 61 | 251 | 1.0 | 7.0 | 0.11 | 0.17 | 0.17 | 90 | 1008.2 |
| 20260506141534 | 61 | 258 | 0.0 | 3.0 | 0.10 | 0.16 | 0.16 | 90 | 1008.1 |
| 20260506140037 | 61 | 0 | 0.0 | 3.0 | 0.05 | 0.10 | 0.10 | 89 | 1008.1 |
| 20260506134605 | 61 | 0 | 0.0 | 1.0 | 0.03 | 0.07 | 0.07 | 88 | 1008.1 |
| 20260506133034 | 62 | 0 | 0.0 | 1.0 | 0.04 | 0.06 | 0.06 | 89 | 1008.2 |
| 20260506131533 | 61 | 0 | 0.0 | 1.0 | 0.05 | 0.06 | 0.06 | 88 | 1008.3 |
| 20260506130032 | 61 | 242 | 0.0 | 0.0 | 0.04 | 0.05 | 0.05 | 88 | 1008.2 |
| 20260506124537 | 61 | 0 | 0.0 | 0.0 | 0.04 | 0.04 | 0.04 | 87 | 1008.5 |
| 20260506123042 | 61 | 0 | 0.0 | 1.0 | 0.02 | 0.02 | 0.02 | 86 | 1008.6 |
| 20260506121536 | 61 | 0 | 0.0 | 1.0 | 0.01 | 0.01 | 0.01 | 85 | 1008.7 |
| 20260506120032 | 61 | 242 | 0.0 | 1.0 | 0.01 | 0.01 | 0.01 | 85 | 1008.3 |
| 20260506114543 | 60 | 0 | 0.0 | 1.0 | 0.00 | 0.00 | 0.00 | 84 | 1008.2 |
| 20260506113037 | 60 | 0 | 0.0 | 0.0 | 0.00 | 0.00 | 0.00 | 84 | 1008.1 |
| 20260506111533 | 60 | 0 | 0.0 | 0.0 | 0.00 | 0.00 | 0.00 | 83 | 1008.0 |
| 20260506110034 | 60 | 0 | 0.0 | 1.0 | 0.00 | 0.00 | 0.00 | 81 | 1007.9 |
| 20260506104534 | 60 | 0 | 0.0 | 1.0 | 0.00 | 0.00 | 0.00 | 80 | 1007.8 |
| 20260506103034 | 60 | 90 | 1.0 | 2.0 | 0.00 | 0.00 | 0.00 | 79 | 1007.6 |
| 20260506101536 | 59 | 98 | 1.0 | 1.0 | 0.00 | 0.00 | 0.00 | 79 | 1007.4 |
| 20260506100036 | 59 | 100 | 0.0 | 1.0 | 0.00 | 0.00 | 0.00 | 78 | 1007.3 |
| 20260506094534 | 59 | 113 | 1.0 | 1.0 | 0.00 | 0.00 | 0.00 | 77 | 1007.3 |
| 20260506093034 | 59 | 86 | 0.0 | 1.0 | 0.00 | 0.00 | 0.00 | 78 | 1007.5 |
| 20260506091534 | 59 | 0 | 0.0 | 1.0 | 0.00 | 0.00 | 0.00 | 77 | 1007.5 |
| 20260506090031 | 59 | 86 | 1.0 | 2.0 | 0.00 | 0.00 | 0.00 | 77 | 1007.6 |
| 20260506084536 | 59 | 105 | 1.0 | 1.0 | 0.00 | 0.00 | 0.00 | 76 | 1007.7 |
| 20260506083037 | 59 | 108 | 0.0 | 2.0 | 0.00 | 0.00 | 0.00 | 76 | 1007.7 |
| 20260506081542 | 59 | 98 | 1.0 | 2.0 | 0.00 | 0.00 | 0.00 | 77 | 1007.7 |
| 20260506073036 | 59 | 105 | 0.0 | 1.0 | 0.00 | 0.00 | 0.00 | 76 | 1007.7 |
| 20260506071535 | 59 | 0 | 0.0 | 1.0 | 0.00 | 0.00 | 0.00 | 74 | 1007.9 |
| 20260506061538 | 60 | 0 | 0.0 | 1.0 | 0.00 | 0.01 | 0.00 | 71 | 1008.4 |
| 20260506044538 | 59 | 0 | 0.0 | 0.0 | 0.00 | 0.03 | 0.00 | 71 | 1008.9 |
| 20260506043033 | 59 | 0 | 0.0 | 1.0 | 0.00 | 0.03 | 0.00 | 71 | 1008.9 |
| 20260506041539 | 59 | 89 | 0.0 | 2.0 | 0.00 | 0.03 | 0.00 | 70 | 1008.9 |
| 20260506040035 | 58 | 0 | 0.0 | 1.0 | 0.00 | 0.03 | 0.00 | 72 | 1009.0 |
| 20260506034534 | 59 | 95 | 1.0 | 1.0 | 0.00 | 0.03 | 0.03 | 71 | 1008.9 |
| 20260506033034 | 60 | 103 | 0.0 | 2.0 | 0.00 | 0.03 | 0.03 | 70 | 1008.9 |
| 20260506031538 | 59 | 89 | 0.0 | 2.0 | 0.00 | 0.03 | 0.03 | 71 | 1008.9 |
| 20260506030039 | 60 | 0 | 0.0 | 0.0 | 0.00 | 0.03 | 0.03 | 68 | 1008.9 |
| 20260506024540 | 61 | 0 | 0.0 | 1.0 | 0.00 | 0.03 | 0.03 | 67 | 1008.8 |
| 20260506023035 | 62 | 0 | 0.0 | 1.0 | 0.00 | 0.03 | 0.03 | 65 | 1009.0 |
| 20260506021534 | 64 | 0 | 0.0 | 1.0 | 0.00 | 0.03 | 0.03 | 61 | 1008.9 |